AAL9784 KMIA-MKJS

Flight info

Callsign AAL9784
Flight time 1h 14m
Altitude 33000
Route GWAVA2 URSUS UP406 BILSI NIBEO UL341 ENARI
Aircraft B738/M-VGDW/C

Departure

Time 2026-05-08 13:59
Airport Miami International Airport (KMIA)

Arrival

Time 2026-05-08 15:13
Airport Sangster International Airport (MKJS)
Time Latitude Longitude Altitude Speed Heading
2026-05-08 13:42 25.79621 -80.28026 11 ft 0 kts 27°
2026-05-08 13:43 25.79616 -80.28029 11 ft 2 kts 28°
2026-05-08 13:43 25.79603 -80.28038 11 ft 2 kts 35°
2026-05-08 13:43 25.79591 -80.28048 11 ft 2 kts 39°
2026-05-08 13:43 25.79579 -80.28058 11 ft 2 kts 37°
2026-05-08 13:44 25.79571 -80.28065 11 ft 0 kts 38°
2026-05-08 13:44 25.79583 -80.28061 11 ft 2 kts 359°
2026-05-08 13:44 25.79597 -80.28073 11 ft 2 kts 297°
2026-05-08 13:44 25.79602 -80.28085 11 ft 0 kts 295°
2026-05-08 13:50 25.79603 -80.28087 11 ft 2 kts 295°
2026-05-08 13:50 25.79621 -80.28130 11 ft 9 kts 293°
2026-05-08 13:50 25.79650 -80.28217 11 ft 13 kts 288°
2026-05-08 13:51 25.79673 -80.28322 11 ft 14 kts 271°
2026-05-08 13:51 25.79667 -80.28432 11 ft 14 kts 267°
2026-05-08 13:51 25.79661 -80.28535 11 ft 12 kts 264°
2026-05-08 13:51 25.79649 -80.28627 11 ft 11 kts 262°
2026-05-08 13:52 25.79641 -80.28706 11 ft 9 kts 269°
2026-05-08 13:52 25.79640 -80.28775 11 ft 8 kts 271°
2026-05-08 13:52 25.79643 -80.28843 11 ft 10 kts 272°
2026-05-08 13:52 25.79626 -80.28885 11 ft 0 kts 231°
2026-05-08 13:53 25.79623 -80.28888 11 ft 0 kts 231°
2026-05-08 13:53 25.79612 -80.28895 11 ft 3 kts 190°
2026-05-08 13:53 25.79594 -80.28896 11 ft 3 kts 181°
2026-05-08 13:53 25.79543 -80.28896 11 ft 10 kts 176°
2026-05-08 13:54 25.79452 -80.28889 12 ft 15 kts 178°
2026-05-08 13:54 25.79350 -80.28845 14 ft 16 kts 123°
2026-05-08 13:54 25.79296 -80.28738 13 ft 15 kts 117°
2026-05-08 13:54 25.79246 -80.28634 12 ft 14 kts 123°
2026-05-08 13:55 25.79191 -80.28537 12 ft 16 kts 119°
2026-05-08 13:55 25.79121 -80.28422 11 ft 18 kts 128°
2026-05-08 13:55 25.79001 -80.28192 11 ft 15 kts 120°
2026-05-08 13:56 25.78950 -80.28091 11 ft 14 kts 120°
2026-05-08 13:56 25.78919 -80.28031 11 ft 7 kts 120°
2026-05-08 13:56 25.78895 -80.27985 11 ft 6 kts 120°
2026-05-08 13:56 25.78878 -80.27947 11 ft 4 kts 103°
2026-05-08 13:57 25.78876 -80.27917 11 ft 2 kts 93°
2026-05-08 13:57 25.78875 -80.27886 11 ft 6 kts 93°
2026-05-08 13:57 25.78874 -80.27836 11 ft 7 kts 89°
2026-05-08 13:57 25.78874 -80.27769 11 ft 9 kts 98°
2026-05-08 13:58 25.78849 -80.27692 11 ft 10 kts 125°
2026-05-08 13:58 25.78796 -80.27643 11 ft 11 kts 182°
2026-05-08 13:58 25.78766 -80.27718 11 ft 17 kts 265°
2026-05-08 13:58 25.78748 -80.28143 11 ft 90 kts 267°
2026-05-08 13:59 25.78707 -80.29079 15 ft 150 kts 268°
2026-05-08 13:59 25.78653 -80.30386 210 ft 181 kts 269°
2026-05-08 13:59 25.78577 -80.31807 758 ft 193 kts 268°
2026-05-08 13:59 25.78499 -80.33340 1404 ft 204 kts 269°
2026-05-08 14:00 25.78435 -80.34943 1968 ft 218 kts 269°
2026-05-08 14:00 25.78376 -80.36661 2532 ft 233 kts 269°
2026-05-08 14:00 25.78215 -80.38528 3064 ft 253 kts 258°
2026-05-08 14:00 25.77448 -80.40311 3729 ft 266 kts 233°
2026-05-08 14:01 25.76168 -80.41799 4523 ft 272 kts 224°
2026-05-08 14:01 25.74728 -80.43193 5318 ft 277 kts 216°
2026-05-08 14:01 25.73016 -80.44165 6108 ft 282 kts 199°
2026-05-08 14:01 25.71074 -80.44537 6916 ft 287 kts 182°
2026-05-08 14:02 25.69086 -80.44493 7844 ft 289 kts 172°
2026-05-08 14:02 25.67186 -80.43835 8720 ft 290 kts 150°
2026-05-08 14:02 25.65575 -80.42498 9571 ft 291 kts 134°
2026-05-08 14:02 25.64322 -80.40752 10301 ft 296 kts 122°
2026-05-08 14:03 25.63273 -80.38776 11034 ft 301 kts 118°
2026-05-08 14:03 25.62281 -80.36738 11673 ft 309 kts 118°
2026-05-08 14:03 25.61233 -80.34586 12070 ft 325 kts 119°
2026-05-08 14:03 25.60076 -80.32356 12469 ft 341 kts 123°
2026-05-08 14:04 25.58585 -80.30241 12861 ft 355 kts 133°
2026-05-08 14:04 25.56808 -80.28270 13354 ft 366 kts 137°
2026-05-08 14:04 25.54935 -80.26370 13998 ft 371 kts 139°
2026-05-08 14:04 25.53011 -80.24440 14616 ft 377 kts 139°
2026-05-08 14:05 25.51071 -80.22466 15259 ft 382 kts 138°
2026-05-08 14:05 25.49121 -80.20447 15896 ft 386 kts 137°
2026-05-08 14:05 25.47158 -80.18385 16505 ft 391 kts 137°
2026-05-08 14:05 25.45199 -80.16309 17096 ft 395 kts 137°
2026-05-08 14:06 25.43220 -80.14201 17675 ft 399 kts 137°
2026-05-08 14:06 25.41194 -80.12041 18244 ft 403 kts 137°
2026-05-08 14:06 25.39185 -80.09899 18821 ft 406 kts 137°
2026-05-08 14:06 25.37133 -80.07712 19336 ft 411 kts 137°
2026-05-08 14:07 25.35075 -80.05522 19858 ft 415 kts 137°
2026-05-08 14:07 25.32973 -80.03288 20356 ft 419 kts 137°
2026-05-08 14:07 25.30870 -80.01054 20837 ft 423 kts 137°
2026-05-08 14:07 25.28738 -79.98807 20963 ft 428 kts 138°
2026-05-08 14:08 25.26512 -79.96631 20962 ft 423 kts 142°
2026-05-08 14:08 25.24156 -79.94674 20968 ft 425 kts 146°
2026-05-08 14:08 25.21703 -79.92851 21441 ft 428 kts 148°
2026-05-08 14:08 25.19179 -79.91066 21983 ft 430 kts 149°
2026-05-08 14:09 25.16657 -79.89314 22525 ft 431 kts 149°
2026-05-08 14:09 25.14076 -79.87529 22961 ft 435 kts 149°
2026-05-08 14:09 25.11525 -79.85761 23406 ft 438 kts 149°
2026-05-08 14:09 25.08943 -79.83962 23856 ft 441 kts 149°
2026-05-08 14:10 25.06327 -79.82134 24250 ft 445 kts 149°
2026-05-08 14:10 25.03717 -79.80304 24688 ft 447 kts 149°
2026-05-08 14:10 25.01077 -79.78448 25092 ft 450 kts 149°
2026-05-08 14:10 24.98418 -79.76575 25514 ft 453 kts 149°
2026-05-08 14:11 24.95783 -79.74719 26054 ft 451 kts 149°
2026-05-08 14:11 24.93163 -79.72870 26578 ft 450 kts 149°
2026-05-08 14:11 24.90519 -79.71005 27099 ft 449 kts 149°
2026-05-08 14:11 24.87884 -79.69148 27573 ft 448 kts 149°
2026-05-08 14:12 24.85261 -79.67298 28053 ft 447 kts 149°
2026-05-08 14:12 24.82648 -79.65456 28528 ft 446 kts 150°
2026-05-08 14:12 24.80051 -79.63625 28968 ft 445 kts 150°
2026-05-08 14:12 24.77471 -79.61807 29396 ft 444 kts 149°
2026-05-08 14:13 24.74854 -79.59963 29817 ft 443 kts 149°
2026-05-08 14:13 24.72274 -79.58149 30204 ft 443 kts 149°
2026-05-08 14:13 24.69695 -79.56336 30588 ft 442 kts 149°
2026-05-08 14:13 24.67105 -79.54515 30966 ft 442 kts 149°
2026-05-08 14:14 24.64503 -79.52686 31323 ft 441 kts 149°
2026-05-08 14:14 24.61929 -79.50879 31660 ft 441 kts 149°
2026-05-08 14:14 24.59341 -79.49062 31993 ft 441 kts 149°
2026-05-08 14:14 24.56758 -79.47250 32327 ft 441 kts 149°
2026-05-08 14:15 24.54172 -79.45438 32650 ft 440 kts 149°
2026-05-08 14:15 24.51597 -79.43633 32992 ft 439 kts 149°
2026-05-08 14:15 24.49007 -79.41820 33036 ft 443 kts 149°
2026-05-08 14:16 24.43842 -79.38204 33038 ft 437 kts 149°
2026-05-08 14:16 24.38723 -79.34624 33039 ft 437 kts 149°
2026-05-08 14:17 24.33613 -79.31055 33037 ft 436 kts 149°
2026-05-08 14:17 24.28497 -79.27473 33036 ft 437 kts 149°
2026-05-08 14:18 24.23392 -79.23818 33034 ft 437 kts 148°
2026-05-08 14:18 24.18331 -79.20167 33033 ft 437 kts 148°
2026-05-08 14:19 24.13136 -79.16431 33032 ft 451 kts 148°
2026-05-08 14:19 24.07801 -79.12605 33028 ft 466 kts 148°
2026-05-08 14:20 24.02292 -79.08770 33026 ft 479 kts 151°
2026-05-08 14:20 23.96080 -79.06005 33030 ft 480 kts 167°
2026-05-08 14:21 23.89580 -79.04533 33029 ft 477 kts 172°
2026-05-08 14:21 23.83001 -79.03361 33028 ft 478 kts 173°
2026-05-08 14:22 23.76435 -79.02193 33028 ft 477 kts 172°
2026-05-08 14:22 23.69881 -79.00976 33029 ft 477 kts 172°
2026-05-08 14:23 23.63350 -78.99721 33028 ft 477 kts 172°
2026-05-08 14:23 23.56800 -78.98442 33029 ft 477 kts 172°
2026-05-08 14:24 23.50276 -78.97160 33029 ft 478 kts 171°
2026-05-08 14:24 23.43725 -78.95869 33028 ft 478 kts 171°
2026-05-08 14:25 23.37180 -78.94580 33029 ft 478 kts 171°
2026-05-08 14:25 23.30636 -78.93294 33028 ft 477 kts 171°
2026-05-08 14:26 23.24088 -78.92007 33028 ft 478 kts 171°
2026-05-08 14:26 23.17500 -78.90795 33028 ft 476 kts 174°
2026-05-08 14:27 23.10897 -78.90106 33028 ft 476 kts 177°
2026-05-08 14:27 23.04286 -78.89627 33028 ft 476 kts 178°
2026-05-08 14:28 22.97657 -78.89151 33029 ft 476 kts 178°
2026-05-08 14:28 22.91014 -78.88642 33027 ft 477 kts 177°
2026-05-08 14:29 22.84410 -78.88110 33030 ft 477 kts 177°
2026-05-08 14:29 22.77757 -78.87558 33028 ft 477 kts 177°
2026-05-08 14:30 22.71140 -78.87003 33026 ft 477 kts 177°
2026-05-08 14:30 22.64506 -78.86444 33020 ft 477 kts 177°
2026-05-08 14:31 22.57856 -78.85883 33017 ft 477 kts 176°
2026-05-08 14:31 22.51217 -78.85325 33019 ft 477 kts 176°
2026-05-08 14:32 22.41266 -78.84489 33017 ft 477 kts 176°
2026-05-08 14:32 22.34640 -78.83933 33014 ft 476 kts 176°
2026-05-08 14:33 22.27943 -78.83371 33015 ft 479 kts 176°
2026-05-08 14:33 22.21334 -78.82818 33013 ft 478 kts 176°
2026-05-08 14:34 22.14636 -78.82257 33017 ft 479 kts 176°
2026-05-08 14:34 22.07958 -78.81699 33021 ft 478 kts 176°
2026-05-08 14:35 22.01317 -78.81144 33022 ft 477 kts 176°
2026-05-08 14:35 21.94689 -78.80592 33027 ft 477 kts 176°
2026-05-08 14:36 21.88041 -78.80037 33029 ft 478 kts 176°
2026-05-08 14:36 21.81359 -78.79480 33032 ft 479 kts 176°
2026-05-08 14:37 21.74721 -78.78928 33030 ft 479 kts 176°
2026-05-08 14:37 21.68037 -78.78372 33028 ft 479 kts 176°
2026-05-08 14:38 21.61403 -78.77821 33021 ft 479 kts 176°
2026-05-08 14:38 21.54756 -78.77270 33019 ft 479 kts 176°
2026-05-08 14:39 21.48073 -78.76717 33020 ft 479 kts 176°
2026-05-08 14:39 21.41443 -78.76167 33023 ft 480 kts 176°
2026-05-08 14:40 21.34773 -78.75616 33020 ft 480 kts 176°
2026-05-08 14:40 21.28064 -78.75061 33019 ft 480 kts 176°
2026-05-08 14:41 21.21424 -78.74513 33017 ft 479 kts 176°
2026-05-08 14:41 21.14751 -78.73962 33018 ft 480 kts 176°
2026-05-08 14:42 21.08085 -78.73412 33024 ft 480 kts 175°
2026-05-08 14:42 21.01416 -78.72863 33030 ft 481 kts 175°
2026-05-08 14:43 20.94715 -78.72311 33028 ft 480 kts 175°
2026-05-08 14:43 20.88060 -78.71764 33029 ft 481 kts 175°
2026-05-08 14:44 20.81370 -78.71214 33029 ft 480 kts 175°
2026-05-08 14:44 20.74711 -78.70668 33029 ft 480 kts 175°
2026-05-08 14:45 20.68060 -78.70123 33029 ft 481 kts 175°
2026-05-08 14:45 20.61367 -78.69575 33029 ft 481 kts 175°
2026-05-08 14:46 20.54667 -78.69026 33029 ft 480 kts 175°
2026-05-08 14:46 20.48021 -78.68483 33029 ft 480 kts 175°
2026-05-08 14:47 20.41356 -78.67938 33029 ft 480 kts 175°
2026-05-08 14:47 20.34674 -78.67393 33029 ft 480 kts 175°
2026-05-08 14:48 20.28002 -78.66849 33028 ft 480 kts 175°
2026-05-08 14:48 20.24661 -78.66577 32890 ft 482 kts 175°
2026-05-08 14:48 20.21316 -78.66305 32658 ft 481 kts 175°
2026-05-08 14:49 20.17989 -78.66035 32429 ft 479 kts 175°
2026-05-08 14:49 20.14643 -78.65764 32199 ft 479 kts 175°
2026-05-08 14:49 20.11332 -78.65494 31972 ft 479 kts 175°
2026-05-08 14:49 20.07984 -78.65221 31742 ft 480 kts 175°
2026-05-08 14:50 20.04672 -78.64925 31514 ft 480 kts 173°
2026-05-08 14:50 20.01376 -78.64425 31285 ft 480 kts 168°
2026-05-08 14:50 19.98089 -78.63580 31053 ft 479 kts 162°
2026-05-08 14:50 19.94937 -78.62415 30826 ft 479 kts 157°
2026-05-08 14:51 19.91865 -78.61029 30597 ft 479 kts 154°
2026-05-08 14:51 19.88857 -78.59538 30370 ft 480 kts 153°
2026-05-08 14:51 19.85823 -78.57978 30140 ft 480 kts 153°
2026-05-08 14:51 19.82817 -78.56422 29912 ft 481 kts 153°
2026-05-08 14:52 19.79787 -78.54867 29683 ft 480 kts 153°
2026-05-08 14:52 19.73748 -78.51832 29230 ft 481 kts 153°
2026-05-08 14:52 19.70698 -78.50328 29002 ft 481 kts 154°
2026-05-08 14:53 19.67658 -78.48842 28774 ft 481 kts 154°
2026-05-08 14:53 19.64604 -78.47356 28401 ft 482 kts 154°
2026-05-08 14:53 19.61585 -78.45895 27944 ft 478 kts 154°
2026-05-08 14:53 19.58580 -78.44444 27488 ft 472 kts 154°
2026-05-08 14:54 19.55580 -78.42998 27029 ft 469 kts 153°
2026-05-08 14:54 19.52647 -78.41585 26581 ft 467 kts 153°
2026-05-08 14:54 19.49682 -78.40156 26126 ft 466 kts 153°
2026-05-08 14:54 19.46712 -78.38725 25669 ft 463 kts 153°
2026-05-08 14:55 19.43796 -78.37321 25217 ft 460 kts 153°
2026-05-08 14:55 19.40911 -78.35931 24769 ft 458 kts 153°
2026-05-08 14:55 19.37988 -78.34525 24314 ft 456 kts 153°
2026-05-08 14:55 19.35116 -78.33142 23867 ft 454 kts 153°
2026-05-08 14:56 19.32253 -78.31764 23421 ft 451 kts 153°
2026-05-08 14:56 19.29398 -78.30392 22976 ft 448 kts 153°
2026-05-08 14:56 19.26580 -78.29036 22535 ft 445 kts 153°
2026-05-08 14:56 19.23764 -78.27683 22100 ft 442 kts 153°
2026-05-08 14:57 19.20978 -78.26344 21672 ft 439 kts 152°
2026-05-08 14:57 19.18207 -78.25013 21241 ft 434 kts 152°
2026-05-08 14:57 19.15472 -78.23701 20813 ft 429 kts 152°
2026-05-08 14:57 19.12752 -78.22395 20383 ft 425 kts 152°
2026-05-08 14:58 19.10078 -78.21111 19957 ft 421 kts 152°
2026-05-08 14:58 19.07422 -78.19836 19529 ft 417 kts 152°
2026-05-08 14:58 19.04794 -78.18575 19102 ft 413 kts 152°
2026-05-08 14:58 19.02197 -78.17329 18676 ft 409 kts 152°
2026-05-08 14:59 18.99618 -78.16092 18238 ft 406 kts 152°
2026-05-08 14:59 18.94544 -78.13657 16965 ft 393 kts 152°
2026-05-08 14:59 18.92080 -78.12475 16346 ft 392 kts 152°
2026-05-08 15:00 18.89589 -78.11279 15763 ft 392 kts 152°
2026-05-08 15:00 18.87109 -78.10090 15102 ft 391 kts 152°
2026-05-08 15:00 18.84637 -78.08907 14466 ft 390 kts 152°
2026-05-08 15:00 18.82194 -78.07738 13832 ft 388 kts 152°
2026-05-08 15:01 18.79734 -78.06561 13198 ft 387 kts 153°
2026-05-08 15:01 18.77273 -78.05384 12555 ft 385 kts 153°
2026-05-08 15:01 18.74830 -78.04218 11910 ft 383 kts 153°
2026-05-08 15:01 18.72432 -78.03072 11294 ft 381 kts 153°
2026-05-08 15:02 18.70036 -78.01929 10922 ft 371 kts 153°
2026-05-08 15:02 18.67683 -78.00989 10879 ft 360 kts 166°
2026-05-08 15:02 18.65170 -78.00962 10873 ft 367 kts 190°
2026-05-08 15:02 18.62809 -78.02060 10868 ft 370 kts 216°
2026-05-08 15:03 18.61098 -78.04024 10838 ft 360 kts 237°
2026-05-08 15:03 18.59883 -78.06251 10773 ft 345 kts 240°
2026-05-08 15:03 18.58693 -78.08434 10334 ft 343 kts 239°
2026-05-08 15:03 18.57488 -78.10600 9771 ft 344 kts 239°
2026-05-08 15:04 18.56287 -78.12756 9210 ft 345 kts 239°
2026-05-08 15:04 18.55072 -78.14940 8644 ft 346 kts 239°
2026-05-08 15:04 18.53847 -78.17153 8079 ft 347 kts 239°
2026-05-08 15:04 18.52655 -78.19323 7435 ft 344 kts 239°
2026-05-08 15:05 18.51476 -78.21483 6826 ft 335 kts 239°
2026-05-08 15:05 18.50341 -78.23580 6210 ft 328 kts 239°
2026-05-08 15:05 18.49193 -78.25641 5589 ft 321 kts 233°
2026-05-08 15:05 18.47616 -78.27193 4964 ft 309 kts 205°
2026-05-08 15:06 18.45597 -78.27740 4398 ft 293 kts 174°
2026-05-08 15:06 18.43734 -78.27166 3946 ft 276 kts 144°
2026-05-08 15:06 18.42460 -78.25749 3485 ft 262 kts 114°
2026-05-08 15:06 18.41923 -78.23959 3063 ft 252 kts 99°
2026-05-08 15:07 18.41739 -78.22188 2923 ft 233 kts 93°
2026-05-08 15:07 18.41684 -78.20576 2952 ft 218 kts 91°
2026-05-08 15:07 18.41651 -78.19012 2946 ft 207 kts 90°
2026-05-08 15:07 18.41743 -78.17513 2901 ft 206 kts 84°
2026-05-08 15:08 18.41911 -78.16032 2805 ft 205 kts 83°
2026-05-08 15:08 18.42028 -78.15030 2740 ft 204 kts 83°
2026-05-08 15:08 18.42216 -78.13062 2613 ft 203 kts 85°
2026-05-08 15:08 18.42332 -78.11584 2597 ft 204 kts 85°
2026-05-08 15:09 18.42482 -78.10099 2592 ft 204 kts 79°
2026-05-08 15:09 18.42934 -78.08665 2475 ft 207 kts 68°
2026-05-08 15:09 18.43553 -78.07289 2358 ft 209 kts 64°
2026-05-08 15:09 18.44213 -78.05908 2093 ft 217 kts 64°
2026-05-08 15:10 18.44891 -78.04472 1934 ft 213 kts 65°
2026-05-08 15:10 18.45519 -78.03114 1909 ft 205 kts 66°
2026-05-08 15:10 18.46053 -78.01717 1530 ft 202 kts 71°
2026-05-08 15:10 18.46466 -78.00354 1147 ft 192 kts 72°
2026-05-08 15:11 18.46945 -77.99086 920 ft 174 kts 65°
2026-05-08 15:11 18.47435 -77.98035 851 ft 146 kts 64°
2026-05-08 15:11 18.47859 -77.97113 724 ft 136 kts 64°
2026-05-08 15:11 18.48253 -77.96216 610 ft 137 kts 65°
2026-05-08 15:12 18.48651 -77.95292 549 ft 138 kts 66°
2026-05-08 15:12 18.49039 -77.94367 463 ft 136 kts 65°
2026-05-08 15:12 18.49440 -77.93467 274 ft 136 kts 63°
2026-05-08 15:12 18.49832 -77.92572 85 ft 134 kts 64°
2026-05-08 15:13 18.50205 -77.91724 15 ft 110 kts 68°
2026-05-08 15:13 18.50428 -77.91189 18 ft 53 kts 66°
2026-05-08 15:13 18.50531 -77.90892 19 ft 33 kts 85°
2026-05-08 15:13 18.50511 -77.90698 19 ft 16 kts 150°
2026-05-08 15:14 18.50431 -77.90759 19 ft 15 kts 245°
2026-05-08 15:14 18.50382 -77.90874 19 ft 20 kts 246°
2026-05-08 15:14 18.50327 -77.91009 19 ft 19 kts 248°
2026-05-08 15:14 18.50281 -77.91132 20 ft 17 kts 249°
2026-05-08 15:15 18.50250 -77.91219 20 ft 5 kts 233°
2026-05-08 15:15 18.50240 -77.91233 20 ft 1 kts 233°
2026-05-08 15:15 18.50235 -77.91241 20 ft 6 kts 233°
2026-05-08 15:15 18.50196 -77.91306 19 ft 11 kts 244°
2026-05-08 15:16 18.50167 -77.91379 19 ft 10 kts 237°
2026-05-08 15:16 18.50127 -77.91456 19 ft 11 kts 244°
2026-05-08 15:16 18.50095 -77.91528 19 ft 11 kts 245°
2026-05-08 15:16 18.50057 -77.91615 18 ft 13 kts 246°
2026-05-08 15:17 18.50021 -77.91701 18 ft 12 kts 247°
2026-05-08 15:17 18.49996 -77.91732 19 ft 3 kts 183°
2026-05-08 15:17 18.49974 -77.91725 19 ft 2 kts 158°
2026-05-08 15:17 18.49962 -77.91720 19 ft 1 kts 156°
2026-05-08 15:18 18.49951 -77.91715 19 ft 0 kts 156°